TIANWANG 1A (TW-1A)
1 40928U 15051D   19287.73874152  .00002629  00000-0  64904-4 0  9995
2 40928  97.1370 316.4112 0011337  14.3067  77.4479 15.41339914227353
LAPAN A2
1 40931U 15052B   19287.48182986  .00000614  00000-0 -36357-5 0  9994
2 40931   6.0032 296.6562 0014041  19.5481 340.4972 14.76616209218703
LQSAT
1 40958U 15057A   19287.68678980 +.00000021 +00000-0 +10963-4 0  9999
2 40958 097.8875 353.6264 0017315 219.1453 140.8504 14.73091713216189
CHUBUSAT 2
1 41338U 16012B   19287.86157605 +.00000322 +00000-0 +18276-4 0  9999
2 41338 031.0026 113.7651 0013822 194.5684 165.4554 15.00192381200675
CHUBUSAT 3
1 41339U 16012C   19287.81734018  .00000306  00000-0  16946-4 0  9998
2 41339  31.0095 111.9884 0013501 201.6625 158.3447 15.00364616200662
OUFTI-1
1 41458U 16025C   19287.79499032  .00001135  00000-0  61799-4 0  9992
2 41458  98.1009  20.6453 0164729 320.3164  38.6100 15.06081145190345
E-STAR-2
1 41459U 16025D   19287.90658792 +.00000998 +00000-0 +55299-4 0  9990
2 41459 098.1007 020.3550 0165739 321.5207 037.4267 15.05705875190334
AAUSAT 4
1 41460U 16025E   19287.86426849 +.00001856 +00000-0 +96395-4 0  9999
2 41460 098.0964 021.8597 0155921 313.0041 045.8203 15.07687868190479
NUSAT 1
1 41557U 16033B   19287.90869132 +.00001184 +00000-0 +46784-4 0  9997
2 41557 097.4150 014.7160 0012386 236.2011 123.8049 15.27439222188139
BEESAT 4
1 41619U 16040W   19287.82647708 +.00001219 +00000-0 +54193-4 0  9990
2 41619 097.3553 347.7837 0010424 336.1035 023.9717 15.23366296171849
PRATHAM
1 41783U 16059A   19287.71472633 +.00000072 +00000-0 +23142-4 0  9999
2 41783 098.0545 344.6103 0033791 015.1904 345.0305 14.63013851162809
ALSAT 1N
1 41789U 16059G   19287.87592758 +.00000073 +00000-0 +22892-4 0  9995
2 41789 098.0580 347.0236 0028381 003.9786 356.1632 14.64267389162949
NAYIF 1
1 42017U 17008BX  19287.75654044 +.00001381 +00000-0 +56856-4 0  9999
2 42017 097.3918 353.5772 0007855 109.2684 250.9404 15.25788763147929
MAX VALIER SAT
1 42778U 17036P   19287.73167659 +.00000847 +00000-0 +39834-4 0  9996
2 42778 097.3417 342.7242 0012891 162.6985 197.4693 15.22180616128195
